Location: ????????
(38.4362°N, 22.8767°E)
Time: 10:52:36
(UTC+00:00)

Delta 2 Rocket - Pass Details

Date: 23 April 2024
Orbit: 400 x 680 km, 35.6° (Epoch: 19 May)

Event Time Altitude Azimuth Distance (km) Brightness Sun altitude
Exits shadow 03:08:57 - 270° (W) 2,451 6.0 -6.8°
Reaches altitude 10° 03:09:49 10° 268° (W) 2,134 5.7 -6.6°
Maximum altitude 03:14:39 47° 195° (SSW) 895 4.2 -5.8°
Drops below altitude 10° 03:19:20 10° 122° (ESE) 2,070 6.8 -4.9°
Sets 03:21:43 0° 116° (ESE) 2,947 7.8 -4.5°
